Flight Track Log - Related Links

Times and Time Zones

All times are in EDT time to prevent confusion due to time zone crossing. See the N403S flight status page for this flight to view local times or setup timezone preferences in your user account.

Time Position Orientation Groundspeed Altitude Reporting Facility
EDT Latitude Longitude Course Direction KTS MPH feet Rate Location/Type
Fri 03:40:30 PM 47.4731 -122.2142 159° South 117 135 700  Level Seattle Center
Fri 03:41:25 PM 47.4497 -122.2008 159° South 96 110 1,300 776 Climbing Seattle Center
Fri 03:42:26 PM 47.4278 -122.1767 143° Southeast 94 108 2,200 874 Climbing Seattle Center
Fri 03:43:08 PM 47.4158 -122.1597 136° Southeast 91 105 2,800 800 Climbing Seattle Center
Fri 03:43:26 PM 47.4100 -122.1506 133° Southeast 87 100 3,000 787 Climbing Seattle Center
Fri 03:44:09 PM 47.3992 -122.1336 133° Southeast 89 102 3,600 787 Climbing Seattle Center
Fri 03:44:27 PM 47.4000 -122.1200 85° East 104 120 3,800 689 Climbing Seattle Center
Fri 03:45:10 PM 47.4064 -122.0867 74° East 116 133 4,300 692 Climbing Seattle Center
Fri 03:46:11 PM 47.4233 -122.0283 67° East 141 162 5,000 689 Climbing Seattle Center
Fri 03:47:12 PM 47.4367 -121.9728 70° East 143 165 5,700 787 Climbing Seattle Center
Fri 03:48:13 PM 47.4333 -121.9219 96° East 127 146 6,600 787 Climbing Seattle Center
Fri 03:49:14 PM 47.4314 -121.8714 93° East 125 144 7,300 689 Climbing Seattle Center
Fri 03:50:15 PM 47.4306 -121.8133 91° East 128 147 8,000 689 Climbing Seattle Center
Fri 03:51:16 PM 47.4303 -121.7586 90° East 130 150 8,700 541 Climbing Seattle Center
Fri 03:52:17 PM 47.4283 -121.6983 93° East 146 168 9,100 492 Climbing Seattle Center
Fri 03:53:18 PM 47.4303 -121.6356 87° East 151 174 9,700 590 Climbing Seattle Center
Fri 03:54:19 PM 47.4297 -121.5733 91° East 151 174 10,300 541 Climbing Seattle Center
Fri 03:55:20 PM 47.4283 -121.5064 92° East 158 182 10,800 496 Climbing Seattle Center
Fri 03:56:20 PM 47.4283 -121.4358 90° East 159 183 11,300 545 Climbing Seattle Center
Fri 03:57:21 PM 47.4303 -121.3706 87° East 160 184 11,900 541 Climbing Seattle Center
Fri 03:58:22 PM 47.4322 -121.3031 88° East 162 186 12,400 443 Climbing Seattle Center
Fri 03:59:23 PM 47.4331 -121.2333 89° East 167 192 12,800 393 Climbing Seattle Center
Fri 04:00:24 PM 47.4339 -121.1667 89° East 178 205 13,200 393 Climbing Seattle Center
Fri 04:01:25 PM 47.4347 -121.0933 89° East 178 205 13,600 443 Climbing Seattle Center
Fri 04:02:26 PM 47.4308 -121.0217 95° East 178 205 14,100 590 Climbing Seattle Center
Fri 04:03:27 PM 47.4272 -120.9350 93° East 177 204 14,800 590 Climbing Seattle Center
Fri 04:04:28 PM 47.4225 -120.8661 96° East 172 198 15,300 590 Climbing Seattle Center
Fri 04:05:29 PM 47.4172 -120.8022 97° East 171 197 16,000 639 Climbing Seattle Center
Fri 04:06:30 PM 47.4144 -120.7358 94° East 162 186 16,600 492 Climbing Seattle Center
Fri 04:07:31 PM 47.4114 -120.6694 94° East 161 185 17,000 198 Climbing Seattle Center
Fri 04:08:31 PM 47.4044 -120.5950 98° East 181 208 17,000  Level Seattle Center
Fri 04:09:32 PM 47.3969 -120.5169 98° East 188 216 17,000  Level Seattle Center
Fri 04:10:33 PM 47.3992 -120.4256 88° East 191 220 17,000  Level Seattle Center
Fri 04:11:34 PM 47.4039 -120.3444 85° East 197 227 17,000  Level Seattle Center
Fri 04:12:35 PM 47.4042 -120.2642 90° East 195 224 17,000  Level Seattle Center
Fri 04:13:36 PM 47.4061 -120.1825 88° East 198 228 17,000  Level Seattle Center
Fri 04:14:37 PM 47.4047 -120.0953 91° East 200 230 17,000  Level Seattle Center
Fri 04:15:38 PM 47.4014 -120.0144 93° East 200 230 17,000  Level Seattle Center
Fri 04:16:39 PM 47.3958 -119.9333 96° East 200 230 17,000  Level Seattle Center
Fri 04:17:40 PM 47.3886 -119.8531 98° East 199 229 17,000  Level Seattle Center
Fri 04:18:41 PM 47.3825 -119.7728 96° East 199 229 17,000  Level Seattle Center
Fri 04:19:42 PM 47.3747 -119.6858 97° East 199 229 17,000  Level Seattle Center
Fri 04:20:43 PM 47.3678 -119.6031 97° East 200 230 17,000  Level Seattle Center
Fri 04:21:44 PM 47.3592 -119.5211 99° East 201 231 17,000  Level Seattle Center
Fri 04:22:45 PM 47.3511 -119.4394 98° East 201 231 17,000  Level Seattle Center
Fri 04:23:46 PM 47.3419 -119.3578 99° East 201 231 17,000  Level Seattle Center
Fri 04:24:47 PM 47.3339 -119.2769 98° East 201 231 17,000  Level Seattle Center
Fri 04:25:48 PM 47.3242 -119.1972 100° East 201 231 17,000  Level Seattle Center
Fri 04:26:49 PM 47.3142 -119.1114 100° East 200 230 17,000  Level Seattle Center
Fri 04:27:50 PM 47.3094 -119.0303 95° East 199 229 17,000  Level Seattle Center
Fri 04:28:51 PM 47.3036 -118.9500 96° East 199 229 17,000  Level Seattle Center
Fri 04:29:52 PM 47.2981 -118.8683 96° East 200 230 17,000  Level Seattle Center
Fri 04:30:53 PM 47.2931 -118.7878 95° East 199 229 17,000  Level Seattle Center
Fri 04:31:54 PM 47.2903 -118.6986 93° East 200 230 17,000  Level Seattle Center
Fri 04:32:55 PM 47.2867 -118.6167 94° East 200 230 17,000  Level Seattle Center
Fri 04:33:56 PM 47.2839 -118.5353 93° East 200 230 17,000  Level Seattle Center
Fri 04:34:57 PM 47.2803 -118.4497 94° East 203 234 17,000  Level Seattle Center
Fri 04:35:58 PM 47.2772 -118.3675 93° East 204 235 17,000  Level Seattle Center
Fri 04:36:59 PM 47.2756 -118.2858 92° East 202 232 17,000  Level Seattle Center
Fri 04:38:00 PM 47.2747 -118.1975 91° East 202 232 17,000  Level Seattle Center
Fri 04:39:01 PM 47.2750 -118.1161 90° East 201 231 17,000  Level Seattle Center
Fri 04:40:02 PM 47.2733 -118.0353 92° East 201 231 17,000  Level Seattle Center
Fri 04:41:03 PM 47.2694 -117.9539 94° East 201 231 17,000  Level Seattle Center
Fri 04:42:04 PM 47.2661 -117.8714 93° East 201 231 17,000  Level Seattle Center
Fri 04:43:05 PM 47.2628 -117.7828 93° East 201 231 17,000  Level Seattle Center
Fri 04:44:06 PM 47.2583 -117.6994 94° East 202 232 17,000  Level Seattle Center
Fri 04:45:07 PM 47.2539 -117.6169 95° East 203 234 17,000  Level Seattle Center
Fri 04:46:08 PM 47.2486 -117.5333 95° East 204 235 17,000  Level Seattle Center
Fri 04:47:09 PM 47.2431 -117.4444 95° East 203 234 17,000  Level Seattle Center
Fri 04:48:10 PM 47.2389 -117.3622 94° East 203 234 17,000 -49 Level Seattle Center
Fri 04:49:11 PM 47.2339 -117.2806 95° East 203 234 16,900  Descending Seattle Center
Fri 04:50:12 PM 47.2292 -117.1983 95° East 204 235 17,000 49 Climbing Seattle Center
Fri 04:51:13 PM 47.2233 -117.1158 96° East 204 235 17,000  Level Seattle Center
Fri 04:52:15 PM 47.2158 -117.0331 98° East 205 236 17,000  Level Seattle Center
Fri 04:53:16 PM 47.2061 -116.9511 100° East 206 237 17,000  Level Seattle Center
Fri 04:54:17 PM 47.1944 -116.8714 102° East 205 236 17,000 -49 Level Seattle Center
Fri 04:55:18 PM 47.1839 -116.7914 101° East 204 235 16,900  Descending Seattle Center
Fri 04:56:19 PM 47.1733 -116.7111 101° East 203 234 17,000 49 Climbing Seattle Center
Fri 04:57:20 PM 47.1567 -116.6136 104° East 206 237 17,000  Level Seattle Center
Fri 04:58:21 PM 47.1458 -116.5322 101° East 206 237 17,000  Level Seattle Center
Fri 04:59:22 PM 47.1350 -116.4486 101° East 206 237 17,000  Level Seattle Center
Fri 05:00:23 PM 47.1228 -116.3672 102° East 206 237 17,000 -49 Level Seattle Center
Fri 05:01:24 PM 47.1133 -116.2836 99° East 206 237 16,900 -49 Descending Seattle Center
Fri 05:02:26 PM 47.1039 -116.2019 100° East 206 237 16,900 49 Level Seattle Center
Fri 05:03:27 PM 47.0939 -116.1211 100° East 205 236 17,000 49 Climbing Seattle Center
Fri 05:04:28 PM 47.0867 -116.0383 97° East 205 236 17,000 -197 Level Seattle Center
Fri 05:05:29 PM 47.0794 -115.9508 97° East 211 243 16,600 -443 Descending Seattle Center
Fri 05:06:30 PM 47.0714 -115.8597 97° East 221 254 16,100 -393 Descending Seattle Center
Fri 05:07:31 PM 47.0728 -115.7686 89° East 221 254 15,800 -443 Descending Seattle Center
Fri 05:08:32 PM 47.0719 -115.6556 91° East 227 261 15,200 -471 Descending Seattle Center
Fri 05:09:13 PM 47.0706 -115.6025 92° East 227 261 15,000 -408 Descending Salt Lake Center
Fri 05:10:15 PM 47.0653 -115.5139 95° East 225 259 14,500 -532 Descending Salt Lake Center
Fri 05:11:17 PM 47.0583 -115.4228 96° East 225 259 13,900 -629 Descending Salt Lake Center
Fri 05:12:19 PM 47.0522 -115.3161 95° East 224 258 13,200 -488 Descending Salt Lake Center
Fri 05:13:20 PM 47.0464 -115.2281 96° East 222 255 12,900 -518 Descending Salt Lake Center
Fri 05:14:38 PM 47.0339 -115.1231 100° East 219 252 12,000 -691 Descending Seattle Center
Fri 05:15:39 PM 47.0211 -115.0381 102° East 219 252 11,300 -492 Descending Seattle Center
Fri 05:16:40 PM 47.0075 -114.9547 103° East 215 247 11,000 -148 Descending Seattle Center
Fri 05:17:41 PM 46.9947 -114.8642 102° East 196 226 11,000  Level Seattle Center
Fri 05:18:42 PM 46.9850 -114.7917 101° East 190 219 11,000 49 Level Seattle Center
Fri 05:19:43 PM 46.9758 -114.7222 101° East 183 211 11,100 -246 Climbing Seattle Center
Fri 05:20:44 PM 46.9658 -114.6483 101° East 181 208 10,500 -589 Descending Seattle Center
Fri 05:21:35 PM 46.9594 -114.5722 97° East 195 224 10,000 -796 Descending Salt Lake Center
Fri 05:22:37 PM 46.9611 -114.5000 88° East 182 209 9,000 -878 Descending Salt Lake Center
Fri 05:23:38 PM 46.9608 -114.4267 90° East 171 197 8,200 -829 Descending Salt Lake Center
Fri 05:24:40 PM 46.9672 -114.3558 82° East 172 198 7,300 -871 Descending Salt Lake Center
Fri 05:25:42 PM 46.9700 -114.2886 87° East 171 197 6,400 -919 Descending Salt Lake Center
Fri 05:26:44 PM 46.9703 -114.2172 90° East 166 191 5,400 -1,065 Descending Salt Lake Center
Fri 05:27:46 PM 46.9547 -114.1556 110° East 162 186 4,200 -968 Descending Salt Lake Center
Fri 05:28:48 PM 46.9258 -114.1089 132° Southeast 146 168 3,400 -774 Descending Salt Lake Center
Fri 05:30:00 PM 46.9163 -114.0906 98° East  Level Estimated

Login

Don't have an account? Register now (free) for customized features, flight alerts, and more!